When you browse on this site, cookies collect data to enhance your experience and personalize the content and advertising you see.
Visit our Privacy Policy to learn more. By continuing to use the site, you agree to this use of cookies and data.
  • In Schweiz
  • Länderverzeichnis
  • Für 7 Tage
  • Wassertemperatur
  • Wetterkarte
  • Widgets
  • user-avatar
    Anmelden

    Stündliche Wetter Cam Ranh

    Heute, 28 Mai, Donnerstag

    Zeit Temperatur Niederschläge Wind Luftdruck Luftfeuchtigkeit
    00:00 +29°C° 0.3 mm 3 m/S 753 mmHg 83%
    01:00 +29°C° 0 mm 3 m/S 753 mmHg 81%
    02:00 +29°C° 0 mm 2 m/S 752 mmHg 80%
    03:00 +28°C° 0 mm 2 m/S 752 mmHg 80%
    04:00 +28°C° 0 mm 2 m/S 752 mmHg 79%
    05:00 +29°C° 0 mm 2 m/S 752 mmHg 77%
    06:00 +30°C° 0 mm 2 m/S 752 mmHg 75%
    07:00 +30°C° 0 mm 1 m/S 753 mmHg 73%
    08:00 +31°C° 0 mm 2 m/S 753 mmHg 68%
    09:00 +34°C° 0 mm 2 m/S 753 mmHg 62%
    10:00 +35°C° 0 mm 2 m/S 753 mmHg 57%
    11:00 +35°C° 0.1 mm 3 m/S 753 mmHg 59%
    12:00 +35°C° 0.1 mm 3 m/S 752 mmHg 62%
    13:00 +35°C° 0.1 mm 4 m/S 752 mmHg 64%
    14:00 +35°C° 0.4 mm 4 m/S 751 mmHg 66%
    15:00 +34°C° 0.4 mm 4 m/S 751 mmHg 69%
    16:00 +34°C° 0.4 mm 4 m/S 751 mmHg 72%
    17:00 +33°C° 0.5 mm 4 m/S 751 mmHg 76%
    18:00 +32°C° 0.5 mm 4 m/S 751 mmHg 80%
    19:00 +30°C° 0.5 mm 4 m/S 752 mmHg 84%
    20:00 +30°C° 0.3 mm 4 m/S 752 mmHg 84%
    21:00 +30°C° 0.3 mm 4 m/S 753 mmHg 85%
    22:00 +30°C° 0.3 mm 3 m/S 753 mmHg 85%
    23:00 +29°C° 0.1 mm 3 m/S 753 mmHg 86%

    Morgen, 29 Mai, Freitag

    Zeit Temperatur Niederschläge Wind Luftdruck Luftfeuchtigkeit
    00:00 +29°C° 0.1 mm 3 m/S 753 mmHg 86%
    01:00 +29°C° 0.1 mm 3 m/S 752 mmHg 86%
    02:00 +29°C° 0.2 mm 3 m/S 752 mmHg 86%
    03:00 +29°C° 0.2 mm 3 m/S 752 mmHg 86%
    04:00 +29°C° 0.2 mm 3 m/S 752 mmHg 86%
    05:00 +29°C° 0 mm 3 m/S 753 mmHg 84%
    06:00 +30°C° 0 mm 3 m/S 753 mmHg 82%
    07:00 +30°C° 0 mm 3 m/S 754 mmHg 79%
    08:00 +31°C° 0 mm 3 m/S 754 mmHg 73%
    09:00 +34°C° 0 mm 3 m/S 754 mmHg 67%
    10:00 +35°C° 0 mm 4 m/S 754 mmHg 61%
    11:00 +35°C° 0.1 mm 4 m/S 753 mmHg 60%
    12:00 +36°C° 0.1 mm 5 m/S 753 mmHg 60%
    13:00 +36°C° 0.1 mm 6 m/S 752 mmHg 59%
    14:00 +35°C° 0.1 mm 5 m/S 752 mmHg 63%
    15:00 +34°C° 0.1 mm 5 m/S 751 mmHg 67%
    16:00 +34°C° 0.1 mm 5 m/S 751 mmHg 71%
    17:00 +33°C° 0 mm 5 m/S 752 mmHg 75%
    18:00 +32°C° 0 mm 5 m/S 752 mmHg 78%
    19:00 +30°C° 0 mm 4 m/S 753 mmHg 82%
    20:00 +30°C° 0.1 mm 4 m/S 753 mmHg 82%
    21:00 +30°C° 0.1 mm 4 m/S 754 mmHg 83%
    22:00 +30°C° 0.1 mm 3 m/S 754 mmHg 83%
    23:00 +29°C° 0 mm 3 m/S 754 mmHg 84%

    übermorgen, 30 Mai, Samstag

    Zeit Temperatur Niederschläge Wind Luftdruck Luftfeuchtigkeit
    00:00 +29°C° 0 mm 4 m/S 754 mmHg 84%
    01:00 +29°C° 0 mm 4 m/S 753 mmHg 85%
    02:00 +29°C° 0 mm 4 m/S 753 mmHg 85%
    03:00 +29°C° 0 mm 4 m/S 753 mmHg 85%
    04:00 +28°C° 0 mm 3 m/S 753 mmHg 85%
    05:00 +29°C° 0 mm 3 m/S 753 mmHg 82%
    06:00 +30°C° 0 mm 3 m/S 754 mmHg 79%
    07:00 +30°C° 0 mm 3 m/S 754 mmHg 76%
    08:00 +33°C° 0 mm 3 m/S 754 mmHg 69%
    09:00 +34°C° 0 mm 3 m/S 754 mmHg 63%
    10:00 +35°C° 0 mm 4 m/S 754 mmHg 57%
    11:00 +36°C° 0 mm 4 m/S 754 mmHg 56%
    12:00 +36°C° 0 mm 5 m/S 753 mmHg 55%
    13:00 +37°C° 0 mm 5 m/S 753 mmHg 54%
    14:00 +36°C° 0.1 mm 5 m/S 752 mmHg 58%
    15:00 +35°C° 0.1 mm 5 m/S 752 mmHg 63%
    16:00 +34°C° 0.1 mm 5 m/S 752 mmHg 67%
    17:00 +33°C° 0.3 mm 5 m/S 752 mmHg 72%
    18:00 +32°C° 0.3 mm 5 m/S 753 mmHg 77%
    19:00 +30°C° 0.3 mm 4 m/S 753 mmHg 82%
    20:00 +30°C° 0.2 mm 4 m/S 754 mmHg 83%
    21:00 +30°C° 0.2 mm 3 m/S 754 mmHg 84%
    22:00 +29°C° 0.2 mm 3 m/S 755 mmHg 85%
    23:00 +29°C° 0.2 mm 2 m/S 754 mmHg 84%

    31 Mai, Sonntag

    Zeit Temperatur Niederschläge Wind Luftdruck Luftfeuchtigkeit
    00:00 +29°C° 0.2 mm 2 m/S 754 mmHg 84%
    01:00 +29°C° 0.2 mm 2 m/S 754 mmHg 83%
    02:00 +29°C° 0 mm 2 m/S 754 mmHg 83%
    03:00 +28°C° 0 mm 2 m/S 754 mmHg 83%
    04:00 +28°C° 0 mm 2 m/S 753 mmHg 82%
    05:00 +29°C° 0 mm 2 m/S 754 mmHg 80%
    06:00 +29°C° 0 mm 2 m/S 754 mmHg 78%
    07:00 +30°C° 0 mm 2 m/S 754 mmHg 76%
    08:00 +31°C° 0 mm 2 m/S 754 mmHg 72%
    09:00 +34°C° 0 mm 3 m/S 754 mmHg 67%
    10:00 +35°C° 0 mm 3 m/S 754 mmHg 63%
    11:00 +35°C° 0 mm 4 m/S 753 mmHg 63%
    12:00 +35°C° 0 mm 5 m/S 753 mmHg 63%
    13:00 +36°C° 0 mm 6 m/S 752 mmHg 63%
    14:00 +35°C° 0.2 mm 6 m/S 752 mmHg 66%
    15:00 +34°C° 0.2 mm 6 m/S 751 mmHg 70%
    16:00 +34°C° 0.2 mm 5 m/S 751 mmHg 73%
    17:00 +33°C° 0.5 mm 5 m/S 751 mmHg 77%
    18:00 +32°C° 0.5 mm 5 m/S 752 mmHg 81%
    19:00 +30°C° 0.5 mm 4 m/S 752 mmHg 85%
    20:00 +30°C° 0.2 mm 4 m/S 753 mmHg 86%
    21:00 +30°C° 0.2 mm 4 m/S 753 mmHg 87%
    22:00 +29°C° 0.2 mm 4 m/S 753 mmHg 87%
    23:00 +29°C° 0.6 mm 3 m/S 753 mmHg 87%

    1 Juni, Montag

    Zeit Temperatur Niederschläge Wind Luftdruck Luftfeuchtigkeit
    00:00 +29°C° 0.6 mm 3 m/S 753 mmHg 88%
    01:00 +29°C° 0.6 mm 3 m/S 752 mmHg 88%
    02:00 +29°C° 0.2 mm 3 m/S 752 mmHg 87%
    03:00 +28°C° 0.2 mm 3 m/S 752 mmHg 87%
    04:00 +28°C° 0.2 mm 3 m/S 752 mmHg 86%
    05:00 +29°C° 0.2 mm 2 m/S 752 mmHg 84%
    06:00 +29°C° 0.2 mm 2 m/S 753 mmHg 82%
    07:00 +30°C° 0.2 mm 2 m/S 753 mmHg 80%
    08:00 +31°C° 0 mm 2 m/S 753 mmHg 74%
    09:00 +34°C° 0 mm 3 m/S 753 mmHg 68%
    10:00 +35°C° 0 mm 3 m/S 753 mmHg 62%
    11:00 +35°C° 0.1 mm 4 m/S 753 mmHg 63%
    12:00 +35°C° 0.1 mm 4 m/S 752 mmHg 65%
    13:00 +35°C° 0.1 mm 5 m/S 752 mmHg 67%
    14:00 +35°C° 0.6 mm 5 m/S 751 mmHg 70%
    15:00 +34°C° 0.6 mm 5 m/S 751 mmHg 74%
    16:00 +33°C° 0.6 mm 5 m/S 750 mmHg 77%
    17:00 +33°C° 0.9 mm 5 m/S 751 mmHg 81%
    18:00 +32°C° 0.9 mm 4 m/S 751 mmHg 84%
    19:00 +30°C° 0.9 mm 4 m/S 751 mmHg 87%
    20:00 +30°C° 0.6 mm 4 m/S 752 mmHg 87%
    21:00 +30°C° 0.6 mm 4 m/S 752 mmHg 88%
    22:00 +29°C° 0.6 mm 4 m/S 753 mmHg 88%
    23:00 +29°C° 0.6 mm 4 m/S 753 mmHg 88%

    2 Juni, Dienstag

    Zeit Temperatur Niederschläge Wind Luftdruck Luftfeuchtigkeit
    00:00 +29°C° 0.6 mm 4 m/S 752 mmHg 88%
    01:00 +29°C° 0.6 mm 4 m/S 752 mmHg 88%
    02:00 +28°C° 0.9 mm 4 m/S 752 mmHg 88%
    03:00 +28°C° 0.9 mm 4 m/S 752 mmHg 87%
    04:00 +28°C° 0.9 mm 4 m/S 751 mmHg 87%
    05:00 +28°C° 0 mm 3 m/S 752 mmHg 85%
    06:00 +29°C° 0 mm 3 m/S 752 mmHg 83%
    07:00 +29°C° 0 mm 2 m/S 752 mmHg 80%
    08:00 +31°C° 0 mm 3 m/S 752 mmHg 75%
    09:00 +33°C° 0 mm 3 m/S 752 mmHg 69%
    10:00 +34°C° 0 mm 3 m/S 752 mmHg 63%
    11:00 +35°C° 0.1 mm 4 m/S 752 mmHg 63%
    12:00 +35°C° 0.1 mm 5 m/S 751 mmHg 64%
    13:00 +35°C° 0.1 mm 5 m/S 751 mmHg 64%
    14:00 +34°C° 0.9 mm 6 m/S 750 mmHg 69%
    15:00 +34°C° 0.9 mm 6 m/S 750 mmHg 74%
    16:00 +33°C° 0.9 mm 6 m/S 750 mmHg 79%
    17:00 +32°C° 1.3 mm 6 m/S 750 mmHg 81%
    18:00 +30°C° 1.3 mm 5 m/S 751 mmHg 83%
    19:00 +30°C° 1.3 mm 5 m/S 751 mmHg 85%
    20:00 +30°C° 0.3 mm 5 m/S 751 mmHg 85%
    21:00 +29°C° 0.3 mm 4 m/S 752 mmHg 85%
    22:00 +29°C° 0.3 mm 4 m/S 752 mmHg 85%
    23:00 +29°C° 0.1 mm 4 m/S 752 mmHg 84%
    Mehr zeigen